Вернуться в каталог

STARLINK-11591

АктивенСвязьVLEO
NORAD 63116·PAYLOAD·🇺🇸 United States

Запущен Feb 27, 2025 с Cape Canaveral Space Force Station

Loading…

Ближайшие Пролёты (ближайшие 24 часа)

TLE

СвежийSource: CelesTrak SupGP

Эпоха: Sep 14, 2026, 22:44 UTC

1 63116C 25039N   26257.94770833 -.00048761  00000+0 -37872-3 0  2573
2 63116  43.0003 175.6710 0001512 265.4490 149.3706 15.70863075    18

Отслеживайте STARLINK-11591 в реальном времени с AllMySat

Download on the App Store